Tullahoma, TN

8:53 PM CST on December 14, 2017 (GMT -0600)
Tullahoma Regional-Northern

Weather History for KTHA - February, 2014

Change the Weather History Date:

Wednesday, February 5, 2014

  Actual Average Record
Temperature  
Mean Temperature 36 °F -  
Max Temperature 48 °F 47 °F 60 °F (2013)
Min Temperature 24 °F 27 °F 19 °F (2015)
Degree Days  
Heating Degree Days 29    
Moisture  
Dew Point 29 °F    
Average Humidity 88    
Maximum Humidity 100    
Minimum Humidity 75    
Precipitation  
Precipitation 0.00 in - - ()
Sea Level Pressure  
Sea Level Pressure 30.13 in    
Wind  
Wind Speed 10 mph (NW)    
Max Wind Speed 17 mph    
Max Gust Speed -    
Visibility 9 miles    
Events      
Averages and records for this station are not official NWS values.
T = Trace of Precipitation, MM = Missing Value Source: NWS Daily Summary

Daily Weather History Graph

Daily Weather History Graph

Search for Another Location

Airport or City:

Trip Planner

Search our weather history database for the weather conditions in past years. The results will help you decide how hot, cold, wet, or windy it might be!

Date:

Astronomy

Feb. 05, 2014 Rise Set
Actual Time 6:41 AM CST 5:17 PM CST
Civil Twilight 6:14 AM CST 5:43 PM CST
Nautical Twilight 5:44 AM CST 6:14 PM CST
Astronomical Twilight 5:14 AM CST 6:43 PM CST
Moon 10:10 AM CST (2/5) 11:55 PM CST (2/5)
Length of Visible Light 11h 29m
Length of Day
10h 36m
Waxing Crescent, 39% of the Moon is Illuminated
Feb 5
Waxing Crescent
Feb 6
First Quarter
Feb 14
Full
Feb 22
Last Quarter
Mar 1
New

Hourly Weather History & Observations

Time (CST) Temp. Windchill Dew Point Humidity Pressure Visibility Wind Dir Wind Speed Gust Speed Precip Events Conditions
12:35 AM 44.6 °F 41.4 °F 44.6 °F 100% 29.80 in 3.0 mi SE 5.8 mph - N/A   Overcast
12:55 AM 46.4 °F 43.5 °F 46.4 °F 100% 29.81 in 7.0 mi SSW 5.8 mph - N/A   Overcast
1:15 AM 46.4 °F 45.2 °F 46.4 °F 100% 29.82 in 7.0 mi South 3.5 mph - N/A   Overcast
1:35 AM 46.4 °F 42.9 °F 46.4 °F 100% 29.83 in 1.8 mi West 6.9 mph - N/A   Overcast
1:55 AM 48.2 °F - 48.2 °F 100% 29.83 in 2.0 mi West 10.4 mph - N/A   Overcast
2:15 AM 48.2 °F - 46.4 °F 93% 29.84 in 5.0 mi West 10.4 mph - N/A   Overcast
2:35 AM 46.4 °F 42.4 °F 44.6 °F 93% 29.85 in 10.0 mi West 8.1 mph - N/A   Overcast
2:55 AM 44.6 °F 38.1 °F 44.6 °F 100% 29.86 in 8.0 mi West 13.8 mph - N/A   Overcast
3:15 AM 44.6 °F 38.1 °F 44.6 °F 100% 29.87 in 10.0 mi West 13.8 mph - N/A   Overcast
3:35 AM 42.8 °F 36.2 °F 42.8 °F 100% 29.88 in 10.0 mi West 12.7 mph - N/A   Overcast
3:55 AM 42.8 °F 37.0 °F 42.8 °F 100% 29.89 in 10.0 mi West 10.4 mph - N/A   Overcast
4:15 AM 42.8 °F 38.0 °F 42.8 °F 100% 29.89 in 10.0 mi WSW 8.1 mph - N/A   Mostly Cloudy
4:35 AM 42.8 °F 36.2 °F 39.2 °F 87% 29.91 in 10.0 mi West 12.7 mph - N/A   Overcast
4:55 AM 41.0 °F 34.3 °F 39.2 °F 93% 29.92 in 10.0 mi West 11.5 mph - N/A   Overcast
5:15 AM 39.2 °F 32.0 °F 39.2 °F 100% 29.94 in 10.0 mi WNW 11.5 mph - N/A   Overcast
5:35 AM 39.2 °F 33.6 °F 37.4 °F 93% 29.95 in 10.0 mi WNW 8.1 mph - N/A   Overcast
5:55 AM 37.4 °F 30.8 °F 37.4 °F 100% 29.97 in 10.0 mi WNW 9.2 mph - N/A   Overcast
6:15 AM 37.4 °F 29.8 °F 35.6 °F 93% 29.99 in 10.0 mi West 11.5 mph - N/A   Overcast
6:35 AM 35.6 °F 26.2 °F 35.6 °F 100% 30.00 in 10.0 mi WNW 15.0 mph - N/A   Overcast
6:55 AM 35.6 °F 28.6 °F 33.8 °F 93% 30.02 in 10.0 mi WNW 9.2 mph - N/A   Overcast
7:15 AM 35.6 °F 27.5 °F 33.8 °F 93% 30.04 in 10.0 mi WNW 11.5 mph - N/A   Overcast
7:35 AM 33.8 °F 25.3 °F 32.0 °F 93% 30.05 in 10.0 mi West 11.5 mph - N/A   Overcast
7:55 AM 33.8 °F 24.8 °F 32.0 °F 93% 30.06 in 10.0 mi West 12.7 mph - N/A   Overcast
8:15 AM 33.8 °F 24.8 °F 30.2 °F 87% 30.07 in 10.0 mi WNW 12.7 mph - N/A   Overcast
8:35 AM 33.8 °F 24.3 °F 30.2 °F 87% 30.08 in 10.0 mi WNW 13.8 mph - N/A   Overcast
8:55 AM 32.0 °F 22.1 °F 30.2 °F 93% 30.10 in 10.0 mi WNW 13.8 mph - N/A   Overcast
9:35 AM 33.8 °F 25.3 °F 30.2 °F 87% 30.10 in 10.0 mi WNW 11.5 mph - N/A   Unknown
9:55 AM 32.0 °F 23.0 °F 30.2 °F 93% 30.12 in 10.0 mi WNW 11.5 mph - N/A   Overcast
10:15 AM 32.0 °F 24.2 °F 30.2 °F 93% 30.13 in 10.0 mi WNW 9.2 mph - N/A   Overcast
10:35 AM 32.0 °F 22.5 °F 30.2 °F 93% 30.13 in 10.0 mi WNW 12.7 mph - N/A   Overcast
10:55 AM 32.0 °F 23.6 °F 30.2 °F 93% 30.14 in 7.0 mi West 10.4 mph - N/A   Overcast
11:15 AM 32.0 °F 22.5 °F 30.2 °F 93% 30.14 in 6.0 mi WNW 12.7 mph - N/A   Overcast
11:35 AM 33.8 °F 25.3 °F 30.2 °F 87% 30.14 in 10.0 mi WNW 11.5 mph - N/A   Overcast
11:55 AM 33.8 °F 24.8 °F 30.2 °F 87% 30.14 in 10.0 mi West 12.7 mph - N/A   Overcast
12:15 PM 33.8 °F 25.3 °F 30.2 °F 87% 30.14 in 5.0 mi WNW 11.5 mph - N/A   Overcast
12:35 PM 32.0 °F 23.0 °F 28.4 °F 87% 30.14 in 10.0 mi NW 11.5 mph - N/A   Overcast
12:55 PM 33.8 °F 25.3 °F 28.4 °F 81% 30.14 in 10.0 mi NW 11.5 mph - N/A   Overcast
1:15 PM 33.8 °F 23.2 °F 26.6 °F 75% 30.14 in 10.0 mi NW 17.3 mph - N/A   Overcast
1:35 PM 32.0 °F 21.6 °F 28.4 °F 87% 30.15 in 10.0 mi NW 15.0 mph - N/A   Overcast
1:55 PM 32.0 °F 23.0 °F 26.6 °F 80% 30.16 in 10.0 mi NW 11.5 mph - N/A   Overcast
2:15 PM 30.2 °F 19.8 °F 26.6 °F 86% 30.16 in 10.0 mi NNW 13.8 mph - N/A   Overcast
2:35 PM 30.2 °F 18.5 °F 24.8 °F 80% 30.18 in 10.0 mi NW 17.3 mph - N/A   Overcast
2:55 PM 28.4 °F 16.6 °F 24.8 °F 86% 30.20 in 10.0 mi NNW 16.1 mph - N/A   Overcast
3:15 PM 28.4 °F 17.0 °F 24.8 °F 86% 30.20 in 10.0 mi NNW 15.0 mph - N/A   Overcast
3:35 PM 26.6 °F 14.7 °F 23.0 °F 86% 30.22 in 10.0 mi NW 15.0 mph - N/A   Overcast
3:55 PM 26.6 °F 15.2 °F 23.0 °F 86% 30.24 in 10.0 mi NNW 13.8 mph - N/A   Overcast
4:15 PM 26.6 °F 15.2 °F 21.2 °F 80% 30.24 in 10.0 mi NW 13.8 mph - N/A   Overcast
4:35 PM 26.6 °F 15.7 °F 21.2 °F 80% 30.25 in 10.0 mi NW 12.7 mph - N/A   Overcast
4:55 PM 26.6 °F 14.7 °F 21.2 °F 80% 30.26 in 10.0 mi NNW 15.0 mph - N/A   Overcast
5:15 PM 24.8 °F 12.4 °F 19.4 °F 80% 30.27 in 10.0 mi North 15.0 mph - N/A   Overcast
5:35 PM 24.8 °F 14.0 °F 19.4 °F 80% 30.28 in 10.0 mi NNW 11.5 mph - N/A   Overcast
5:55 PM 24.8 °F 13.4 °F 19.4 °F 80% 30.29 in 10.0 mi North 12.7 mph - N/A   Overcast
6:15 PM 24.8 °F 12.9 °F 19.4 °F 80% 30.30 in 10.0 mi NNW 13.8 mph - N/A   Overcast
6:35 PM 24.8 °F 14.6 °F 19.4 °F 80% 30.31 in 10.0 mi NNW 10.4 mph - N/A   Overcast
6:55 PM 24.8 °F 12.9 °F 19.4 °F 80% 30.30 in 10.0 mi North 13.8 mph - N/A   Overcast
7:15 PM 24.8 °F 14.0 °F 19.4 °F 80% 30.32 in 10.0 mi North 11.5 mph - N/A   Overcast
7:35 PM 24.8 °F 15.3 °F 19.4 °F 80% 30.32 in 10.0 mi NNW 9.2 mph - N/A   Overcast
7:55 PM 24.8 °F 14.0 °F 19.4 °F 80% 30.33 in 10.0 mi NNW 11.5 mph - N/A   Overcast
8:15 PM 24.8 °F 14.0 °F 19.4 °F 80% 30.34 in 10.0 mi NNW 11.5 mph - N/A   Overcast
8:35 PM 24.8 °F 14.0 °F 19.4 °F 80% 30.34 in 10.0 mi NNW 11.5 mph - N/A   Overcast
8:55 PM 24.8 °F 16.1 °F 19.4 °F 80% 30.35 in 10.0 mi NNW 8.1 mph - N/A   Overcast
9:15 PM 24.8 °F 14.6 °F 19.4 °F 80% 30.35 in 10.0 mi North 10.4 mph - N/A   Overcast
9:35 PM 24.8 °F 14.6 °F 19.4 °F 80% 30.35 in 10.0 mi North 10.4 mph - N/A   Overcast
9:55 PM 24.8 °F 15.3 °F 19.4 °F 80% 30.35 in 10.0 mi North 9.2 mph - N/A   Overcast
10:15 PM 24.8 °F 16.1 °F 19.4 °F 80% 30.35 in 10.0 mi North 8.1 mph - N/A   Overcast
10:35 PM 24.8 °F 15.3 °F 19.4 °F 80% 30.36 in 10.0 mi North 9.2 mph - N/A   Overcast
10:55 PM 24.8 °F 16.1 °F 19.4 °F 80% 30.35 in 10.0 mi North 8.1 mph - N/A   Overcast
11:15 PM 24.8 °F 16.1 °F 19.4 °F 80% 30.33 in 10.0 mi North 8.1 mph - N/A   Overcast
11:35 PM 24.8 °F 12.9 °F 19.4 °F 80% 30.34 in 10.0 mi North 13.8 mph - N/A   Overcast
11:55 PM 24.8 °F 14.6 °F 19.4 °F 80% 30.34 in 10.0 mi North 10.4 mph - N/A   Overcast